| time (UTC) | temp C | wind direction | speed KPH | gust KPH | rain 1hr cm | rain 24hr cm | rain mn cm | humidity % | barometer mb |
| 20260506092550 | 12 | 0 | 0.0 | 0.0 | 0.00 | 10.64 | 0.00 | 99 | |
| 20260506091550 | 12 | 0 | 0.0 | 0.0 | 0.00 | 10.64 | 0.00 | 99 | |
| 20260506090520 | 12 | 0 | 0.0 | 0.0 | 0.00 | 10.64 | 0.00 | 99 | |
| 20260506085450 | 12 | 0 | 0.0 | 0.0 | 0.00 | 10.64 | 0.00 | 99 | |
| 20260506084420 | 12 | 0 | 0.0 | 0.0 | 0.00 | 10.64 | 0.00 | 99 | |
| 20260506083420 | 12 | 0 | 0.0 | 0.0 | 0.00 | 10.64 | 0.00 | 99 | |
| 20260506082350 | 12 | 0 | 0.0 | 0.0 | 0.00 | 10.64 | 0.00 | 99 | |
| 20260506081350 | 12 | 0 | 0.0 | 0.0 | 0.00 | 10.64 | 0.00 | 98 | |
| 20260506080350 | 12 | 0 | 0.0 | 0.0 | 0.00 | 10.64 | 0.00 | 98 | |
| 20260506073250 | 12 | 0 | 0.0 | 0.0 | 0.00 | 10.64 | 0.00 | 98 | |
| 20260506072250 | 12 | 0 | 0.0 | 0.0 | 0.00 | 10.64 | 0.00 | 99 | |
| 20260506071220 | 12 | 0 | 0.0 | 0.0 | 0.00 | 10.69 | 0.00 | 98 | |
| 20260506070150 | 12 | 0 | 0.0 | 0.0 | 0.00 | 10.72 | 0.00 | 98 | |
| 20260506062049 | 13 | 0 | 0.0 | 0.0 | 0.00 | 10.77 | 10.72 | 98 | |
| 20260506061019 | 13 | 0 | 0.0 | 0.0 | 0.00 | 10.79 | 10.72 | 97 | |
| 20260506050820 | 13 | 0 | 0.0 | 0.0 | 0.00 | 10.95 | 10.72 | 95 | |
| 20260506044719 | 13 | 0 | 0.0 | 0.0 | 0.00 | 11.07 | 10.72 | 93 | |
| 20260506043719 | 13 | 0 | 0.0 | 0.0 | 0.00 | 11.15 | 10.72 | 91 | |
| 20260506042650 | 13 | 0 | 0.0 | 0.0 | 0.00 | 11.18 | 10.72 | 90 | |
| 20260506041620 | 13 | 0 | 0.0 | 0.0 | 0.00 | 11.18 | 10.72 | 90 | |
| 20260506040549 | 13 | 0 | 0.0 | 0.0 | 0.00 | 11.25 | 10.72 | 89 | |
| 20260506035519 | 13 | 0 | 0.0 | 0.0 | 0.00 | 11.56 | 10.72 | 89 | |
| 20260506034450 | 13 | 0 | 0.0 | 0.0 | 0.00 | 11.71 | 10.72 | 89 | |
| 20260506033419 | 13 | 0 | 0.0 | 0.0 | 0.00 | 11.79 | 10.72 | 88 | |
| 20260506032350 | 13 | 0 | 0.0 | 0.0 | 0.00 | 11.89 | 10.72 | 87 | |
| 20260506031349 | 14 | 0 | 0.0 | 0.0 | 0.00 | 11.99 | 10.72 | 86 | |
| 20260506030319 | 14 | 0 | 0.0 | 0.0 | 0.00 | 12.09 | 10.72 | 85 | |
| 20260506025250 | 14 | 0 | 0.0 | 0.0 | 0.00 | 12.24 | 10.72 | 85 | |
| 20260506024220 | 15 | 0 | 3.2 | 0.0 | 0.00 | 12.32 | 10.72 | 84 | |
| 20260506023149 | 15 | 0 | 3.2 | 0.0 | 0.00 | 12.40 | 10.72 | 84 | |
| 20260506022120 | 15 | 0 | 0.0 | 0.0 | 0.00 | 12.47 | 10.72 | 83 | |
| 20260506021049 | 15 | 0 | 3.2 | 0.0 | 0.00 | 12.50 | 10.72 | 83 | |
| 20260506020019 | 15 | 0 | 1.6 | 0.0 | 0.00 | 12.55 | 10.72 | 84 | |
| 20260506014950 | 15 | 0 | 1.6 | 0.0 | 0.00 | 12.62 | 10.72 | 82 | |
| 20260506013919 | 16 | 0 | 1.6 | 0.0 | 0.00 | 12.65 | 10.72 | 81 | |
| 20260506012920 | 16 | 0 | 3.2 | 0.0 | 0.00 | 12.65 | 10.72 | 80 | |
| 20260506011850 | 16 | 0 | 1.6 | 0.0 | 0.00 | 12.73 | 10.72 | 81 | |
| 20260506010820 | 16 | 0 | 1.6 | 0.0 | 0.00 | 12.73 | 10.72 | 80 | |
| 20260506005820 | 16 | 0 | 3.2 | 0.0 | 0.00 | 12.73 | 10.72 | 80 | |
| 20260506004750 | 16 | 0 | 4.8 | 0.0 | 0.00 | 12.80 | 10.72 | 78 | |
| 20260506003719 | 16 | 0 | 1.6 | 0.0 | 0.00 | 12.85 | 10.72 | 76 | |
| 20260506002650 | 16 | 0 | 0.0 | 0.0 | 0.00 | 12.88 | 10.72 | 76 | |
| 20260506001649 | 16 | 0 | 1.6 | 0.0 | 0.00 | 12.95 | 10.72 | 78 | |
| 20260506000620 | 16 | 0 | 1.6 | 0.0 | 0.00 | 13.00 | 10.72 | 79 | |
| 20260505235550 | 16 | 0 | 0.0 | 0.0 | 0.00 | 13.00 | 10.72 | 80 | |
| 20260505234520 | 15 | 0 | 1.6 | 0.0 | 0.00 | 13.03 | 10.72 | 84 | |
| 20260505233450 | 15 | 0 | 1.6 | 0.0 | 0.00 | 13.08 | 10.72 | 83 | |
| 20260505232450 | 15 | 0 | 3.2 | 0.0 | 0.00 | 13.11 | 10.72 | 83 | |
| 20260505231419 | 15 | 0 | 1.6 | 0.0 | 0.00 | 13.18 | 10.72 | 83 | |
| 20260505230419 | 15 | 0 | 3.2 | 0.0 | 0.00 | 13.18 | 10.72 | 82 | |
| 20260505225350 | 15 | 0 | 1.6 | 0.0 | 0.00 | 13.18 | 10.72 | 81 | |
| 20260505224350 | 15 | 0 | 3.2 | 0.0 | 0.00 | 13.26 | 10.72 | 80 | |
| 20260505223320 | 16 | 0 | 8.0 | 0.0 | 0.00 | 13.34 | 10.72 | 79 | |
| 20260505222320 | 16 | 0 | 1.6 | 0.0 | 0.00 | 13.39 | 10.72 | 79 | |
| 20260505221319 | 16 | 0 | 3.2 | 0.0 | 0.00 | 13.41 | 10.72 | 80 | |
| 20260505220250 | 15 | 0 | 4.8 | 0.0 | 0.00 | 13.46 | 10.72 | 81 | |
| 20260505215250 | 15 | 0 | 4.8 | 0.0 | 0.00 | 13.49 | 10.72 | 81 | |
| 20260505214250 | 15 | 0 | 4.8 | 0.0 | 0.00 | 13.49 | 10.72 | 82 | |
| 20260505213220 | 15 | 0 | 1.6 | 0.0 | 0.00 | 13.56 | 10.72 | 83 | |
| 20260505212220 | 15 | 0 | 4.8 | 0.0 | 0.00 | 13.61 | 10.72 | 81 | |
| 20260505211150 | 15 | 0 | 0.0 | 0.0 | 0.00 | 13.64 | 10.72 | 81 | |
| 20260505210150 | 15 | 0 | 1.6 | 0.0 | 0.00 | 13.69 | 10.72 | 81 | |
| 20260505205120 | 15 | 0 | 0.0 | 0.0 | 0.00 | 13.69 | 10.72 | 80 | |
| 20260505204050 | 15 | 0 | 0.0 | 0.0 | 0.00 | 13.72 | 10.72 | 82 | |
| 20260505203050 | 15 | 0 | 0.0 | 0.0 | 0.00 | 13.72 | 10.72 | 83 | |
| 20260505202020 | 14 | 0 | 0.0 | 0.0 | 0.00 | 13.79 | 10.72 | 84 | |
| 20260505200950 | 14 | 0 | 0.0 | 0.0 | 0.00 | 13.79 | 10.72 | 84 | |
| 20260505195950 | 14 | 0 | 1.6 | 0.0 | 0.00 | 13.79 | 10.72 | 85 | |
| 20260505194950 | 15 | 0 | 0.0 | 0.0 | 0.00 | 13.79 | 10.72 | 82 | |
| 20260505193950 | 15 | 0 | 1.6 | 0.0 | 0.00 | 13.79 | 10.72 | 83 | |
| 20260505192920 | 16 | 0 | 4.8 | 0.0 | 0.00 | 13.79 | 10.72 | 80 | |
| 20260505191920 | 16 | 0 | 1.6 | 0.0 | 0.00 | 13.79 | 10.72 | 77 | |
| 20260505190850 | 16 | 0 | 3.2 | 0.0 | 0.00 | 13.79 | 10.72 | 76 | |
| 20260505185850 | 16 | 0 | 4.8 | 0.0 | 0.00 | 13.79 | 10.72 | 79 | |
| 20260505184820 | 15 | 0 | 4.8 | 0.0 | 0.00 | 13.79 | 10.72 | 82 | |
| 20260505183750 | 15 | 0 | 3.2 | 0.0 | 0.00 | 13.79 | 10.72 | 81 | |
| 20260505182750 | 15 | 0 | 0.0 | 0.0 | 0.00 | 13.79 | 10.72 | 81 | |
| 20260505181720 | 16 | 0 | 4.8 | 0.0 | 0.00 | 13.79 | 10.72 | 75 | |
| 20260505180650 | 16 | 0 | 0.0 | 0.0 | 0.00 | 13.79 | 10.72 | 76 | |
| 20260505175650 | 17 | 0 | 3.2 | 0.0 | 0.00 | 13.79 | 10.72 | 71 | |
| 20260505174620 | 17 | 0 | 3.2 | 0.0 | 0.00 | 13.79 | 10.72 | 71 | |
| 20260505173550 | 16 | 0 | 4.8 | 0.0 | 0.00 | 13.79 | 10.72 | 79 | |
| 20260505172550 | 15 | 0 | 1.6 | 0.0 | 0.00 | 13.79 | 10.72 | 79 | |
| 20260505171550 | 14 | 0 | 3.2 | 0.0 | 0.00 | 13.79 | 10.72 | 85 | |
| 20260505170520 | 13 | 0 | 1.6 | 0.0 | 0.00 | 13.79 | 10.72 | 89 | |
| 20260505165450 | 13 | 0 | 0.0 | 0.0 | 0.00 | 13.79 | 10.72 | 92 | |
| 20260505164420 | 12 | 0 | 3.2 | 0.0 | 0.00 | 13.79 | 10.72 | 93 | |
| 20260505163420 | 11 | 0 | 0.0 | 0.0 | 0.00 | 13.79 | 10.72 | 97 | |
| 20260505162420 | 11 | 0 | 6.4 | 0.0 | 0.00 | 13.79 | 10.72 | 96 | |
| 20260505161350 | 11 | 0 | 3.2 | 0.0 | 10.64 | 13.79 | 10.72 | 98 | |
| 20260505160320 | 11 | 0 | 3.2 | 0.0 | 10.64 | 13.79 | 10.72 | 99 | |
| 20260505153220 | 10 | 0 | 0.0 | 0.0 | 10.64 | 13.79 | 10.72 | 99 | |
| 20260505152220 | 10 | 0 | 1.6 | 0.0 | 10.64 | 13.79 | 10.72 | 99 | |
| 20260505151150 | 10 | 0 | 0.0 | 0.0 | 0.00 | 3.12 | 0.05 | 99 | |
| 20260505150120 | 10 | 0 | 0.0 | 0.0 | 0.00 | 3.12 | 0.05 | 99 | |
| 20260505124650 | 9 | 0 | 0.0 | 0.0 | 0.00 | 3.12 | 0.05 | 99 | |
| 20260505123620 | 9 | 0 | 0.0 | 0.0 | 0.00 | 3.12 | 0.05 | 99 | |
| 20260505122620 | 9 | 0 | 0.0 | 0.0 | 0.00 | 3.12 | 0.05 | 99 | |
| 20260505121550 | 9 | 0 | 0.0 | 0.0 | 0.00 | 3.12 | 0.05 | 99 | |
| 20260505120550 | 9 | 0 | 0.0 | 0.0 | 0.00 | 3.12 | 0.05 | 99 | |
| 20260505115520 | 9 | 0 | 0.0 | 0.0 | 0.00 | 3.12 | 0.05 | 99 | |
| 20260505114450 | 9 | 0 | 0.0 | 0.0 | 0.00 | 3.12 | 0.05 | 99 | |
| 20260505113450 | 9 | 0 | 0.0 | 0.0 | 0.00 | 3.12 | 0.05 | 99 | |
| 20260505112420 | 9 | 0 | 0.0 | 0.0 | 0.00 | 3.12 | 0.05 | 99 | |
| 20260505111350 | 9 | 0 | 0.0 | 0.0 | 0.00 | 3.12 | 0.05 | 99 | |
| 20260505110350 | 9 | 0 | 0.0 | 0.0 | 0.00 | 3.12 | 0.05 | 99 | |
| 20260505101250 | 9 | 0 | 0.0 | 0.0 | 0.00 | 3.12 | 0.05 | 99 | |
| 20260505100250 | 9 | 0 | 0.0 | 0.0 | 0.00 | 3.12 | 0.05 | 99 | |
| 20260505095220 | 9 | 0 | 0.0 | 0.0 | 0.00 | 3.12 | 0.05 | 99 | |
| 20260505094220 | 9 | 0 | 1.6 | 0.0 | 0.00 | 3.12 | 0.05 | 99 | |
| 20260505093150 | 9 | 0 | 3.2 | 0.0 | 0.00 | 3.12 | 0.05 | 99 |